Location: Bailleul
(50.3375°N, 2.8513°E)
Time: 18:43:32
(UTC+00:00)

Meteor 2-5 Rocket - Visible Passes

Search period start: 23 October 2021 00:00
Search period end: 02 November 2021 00:00
Orbit: 832 x 912 km, 81.2° (Epoch: 23 October)

Date Brightness Start Highest point End Pass type
(mag) Time Alt. Az. Time Alt. Az. Time Alt. Az.
23 Oct 6.9 03:44:12 10° ESE 03:46:22 12° E 03:48:33 10° NE visible
23 Oct 4.0 05:23:13 10° S 05:28:44 76° E 05:34:21 10° NNE visible
23 Oct 6.7 17:44:35 10° NW 17:48:18 18° W 17:52:02 10° WSW visible
24 Oct 6.8 03:38:24 10° ESE 03:40:49 13° E 03:43:14 10° NE visible
24 Oct 3.9 05:17:41 10° S 05:23:12 79° E 05:28:50 10° NNE visible
24 Oct 6.7 17:39:10 10° NW 17:42:45 17° W 17:46:22 10° WSW visible
25 Oct 6.8 03:32:39 10° ESE 03:35:15 14° E 03:37:54 10° NE visible
25 Oct 3.8 05:12:09 10° S 05:17:41 82° E 05:23:20 10° NNE visible
25 Oct 6.7 17:33:44 10° NW 17:37:13 16° W 17:40:43 10° WSW visible
26 Oct 6.7 03:26:54 10° ESE 03:29:43 14° E 03:32:32 10° NE visible
26 Oct 3.8 05:06:37 10° S 05:12:10 85° E 05:17:50 10° NNE visible
26 Oct 6.8 17:28:20 10° NW 17:31:40 16° W 17:35:03 10° WSW visible
27 Oct 6.6 03:21:10 10° ESE 03:24:09 15° E 03:27:09 10° NE visible
27 Oct 3.7 05:01:06 10° S 05:06:39 88° ESE 05:12:20 10° NNE visible
27 Oct 6.8 17:22:55 10° NW 17:26:08 15° W 17:29:21 10° WSW visible
28 Oct 6.5 03:15:28 10° ESE 03:18:36 16° E 03:21:46 10° NE visible
28 Oct 3.7 04:55:34 10° S 05:01:08 89° W 05:06:50 10° NNE visible
28 Oct 6.8 17:17:31 10° NW 17:20:35 15° W 17:23:39 10° WSW visible
29 Oct 6.4 03:09:46 10° ESE 03:13:03 16° E 03:16:23 10° NE visible
29 Oct 3.6 04:50:03 10° SSW 04:55:37 86° WNW 05:01:20 10° NNE visible
29 Oct 6.8 17:12:08 10° NW 17:15:02 14° W 17:17:57 10° WSW visible
30 Oct 6.3 03:04:03 10° ESE 03:07:30 17° E 03:10:58 10° NE visible
30 Oct 3.6 04:44:32 10° SSW 04:50:06 83° WNW 04:55:49 10° NNE visible
30 Oct 6.8 17:06:46 10° NW 17:09:30 14° W 17:12:13 10° WSW visible
31 Oct 6.3 02:58:22 10° ESE 03:01:57 18° E 03:05:34 10° NE visible
31 Oct 3.6 04:39:01 10° SSW 04:44:35 80° WNW 04:50:19 10° N visible
31 Oct 6.8 17:01:24 10° NW 17:03:57 13° W 17:06:29 10° WSW visible
01 Nov 6.2 02:52:42 10° SE 02:56:24 18° E 03:00:08 10° NE visible
01 Nov 3.6 04:33:30 10° SSW 04:39:04 78° WNW 04:44:48 10° N visible
01 Nov 6.8 16:56:04 10° NW 16:58:23 12° WNW 17:00:43 10° WSW visible
